Nashua, NH

9:07 PM EST on February 06, 2016 (GMT -0500)
Boire

Weather History for KASH - November, 2012

Change the Weather History Date:

Thursday, November 1, 2012

  Actual Average (KMHT) Record (KMHT)
Temperature  
Mean Temperature 48 °F 46 °F  
Max Temperature 54 °F 56 °F 75 °F (2003)
Min Temperature 41 °F 37 °F - ()
Degree Days  
Heating Degree Days 18    
Cooling Degree Days 0    
Moisture  
Dew Point 38 °F    
Average Humidity 69    
Maximum Humidity 92    
Minimum Humidity 55    
Precipitation  
Precipitation 0.00 in 0.14 in - ()
Month to date precipitation 0.14  
Year to date precipitation 37.37  
Snow  
Snow 0.00 in - - ()
Month to date snowfall  
Since 1 July snowfall  
Snow Depth -    
Sea Level Pressure  
Sea Level Pressure 29.55 in    
Wind  
Wind Speed 2 mph (West)    
Max Wind Speed 9 mph    
Max Gust Speed -    
Visibility 9 miles    
Events Rain    
T = Trace of Precipitation, MM = Missing Value Source: NWS Daily Summary

Daily Weather History Graph

Daily Weather History Graph

Search for Another Location

Airport or City:

Trip Planner

Search our weather history database for the weather conditions in past years. The results will help you decide how hot, cold, wet, or windy it might be!

Date:

Astronomy

Nov. 01, 2012 Rise Set
Actual Time 7:20 AM EDT 5:37 PM EDT
Civil Twilight 6:51 AM EDT 6:07 PM EDT
Nautical Twilight 6:17 AM EDT 6:40 PM EDT
Astronomical Twilight 5:44 AM EDT 7:13 PM EDT
Moon 7:29 PM EDT (11/1) 9:53 AM EDT (11/1)
Length of Visible Light 11h 16m
Length of Day
10h 17m
Waning Gibbous, 93% of the Moon is Illuminated
Nov 1
Waning Gibbous
Nov 6
Last Quarter
Nov 13
New
Nov 20
First Quarter
Nov 28
Full

Hourly Weather History & Observations

Time (EDT) Temp. Windchill Dew Point Humidity Pressure Visibility Wind Dir Wind Speed Gust Speed Precip Events Conditions
12:51 AM 47.8 °F - 38.8 °F 71% 29.57 in 10.0 mi Calm Calm - N/A   Overcast
1:51 AM 46.9 °F - 38.8 °F 73% 29.56 in 10.0 mi Calm Calm - N/A   Overcast
2:51 AM 46.9 °F - 38.8 °F 73% 29.55 in 10.0 mi Calm Calm - N/A   Overcast
3:51 AM 46.9 °F - 38.8 °F 73% 29.54 in 10.0 mi Calm Calm - N/A   Overcast
4:51 AM 43.9 °F - 39.9 °F 86% 29.54 in 10.0 mi Calm Calm - N/A   Clear
5:51 AM 41.0 °F - 38.8 °F 92% 29.55 in 10.0 mi Calm Calm - N/A   Partly Cloudy
6:51 AM 43.0 °F - 38.8 °F 85% 29.55 in 10.0 mi Calm Calm - N/A   Scattered Clouds
7:51 AM 43.0 °F - 37.9 °F 82% 29.57 in 10.0 mi Calm Calm - N/A   Clear
8:51 AM 45.0 °F 43.5 °F 36.9 °F 73% 29.57 in 10.0 mi Variable 3.5 mph - N/A   Clear
9:51 AM 47.8 °F - 36.9 °F 66% 29.57 in 10.0 mi Variable 4.6 mph - N/A   Clear
10:34 AM 48.2 °F - 37.4 °F 66% 29.55 in 10.0 mi Variable 4.6 mph - N/A   Mostly Cloudy
10:51 AM 50.0 °F - 36.9 °F 61% 29.56 in 7.0 mi Variable 3.5 mph - N/A   Overcast
10:57 AM 51.8 °F - 37.4 °F 58% 29.55 in 1.8 mi Variable 5.8 mph - N/A   Haze
11:09 AM 50.0 °F - 37.4 °F 62% 29.55 in 1.2 mi Variable 4.6 mph - N/A   Haze
11:13 AM 51.8 °F - 37.4 °F 58% 29.55 in 2.0 mi West 9.2 mph - N/A   Haze
11:22 AM 50.0 °F - 37.4 °F 62% 29.55 in 10.0 mi West 9.2 mph - N/A   Mostly Cloudy
11:33 AM 50.0 °F - 37.4 °F 62% 29.55 in 10.0 mi West 8.1 mph - N/A   Mostly Cloudy
11:51 AM 50.0 °F - 36.9 °F 61% 29.55 in 4.0 mi West 5.8 mph - N/A   Haze
12:51 PM 52.9 °F - 36.9 °F 55% 29.54 in 10.0 mi WSW 9.2 mph - N/A   Scattered Clouds
1:51 PM 52.9 °F - 37.9 °F 57% 29.52 in 5.0 mi Calm Calm - N/A   Haze
2:51 PM 54.0 °F - 37.9 °F 55% 29.52 in 10.0 mi Variable 4.6 mph - N/A   Mostly Cloudy
3:51 PM 52.0 °F - 37.9 °F 59% 29.52 in 10.0 mi West 4.6 mph - N/A   Mostly Cloudy
4:51 PM 52.0 °F - 37.9 °F 59% 29.52 in 10.0 mi WNW 4.6 mph - N/A   Mostly Cloudy
5:51 PM 50.9 °F - 39.9 °F 66% 29.53 in 10.0 mi Calm Calm - N/A   Overcast
6:51 PM 50.0 °F - 39.9 °F 68% 29.54 in 10.0 mi Calm Calm - N/A   Overcast
7:51 PM 48.9 °F - 39.9 °F 71% 29.55 in 10.0 mi Calm Calm - N/A   Mostly Cloudy
8:51 PM 47.8 °F - 39.9 °F 74% 29.55 in 10.0 mi Calm Calm - N/A   Partly Cloudy
9:51 PM 47.8 °F - 39.9 °F 74% 29.56 in 10.0 mi Calm Calm - N/A   Clear
10:51 PM 47.8 °F - 39.9 °F 74% 29.56 in 10.0 mi Calm Calm - 0.00 in Rain Light Rain
11:51 PM 46.9 °F - 41.0 °F 80% 29.56 in 10.0 mi Calm Calm - 0.00 in   Scattered Clouds